Vorticity
5 5 5 6 6 6 6 6 6 6 6 7 7 7 6 6 6 6 6 6 6 5 5 5 4 4 4 5 5 5 6 6 6 7 7 8 8 8 8 9 9 9 9 9 9 9 9 8 8 8 9 9 10 11 11 10 9 8 7 6 5 4 4 4 3 3 3 4 4
7 7 8 8 8 9 9 9 9 9 10 10 10 10 10 10 10 10 9 9 9 9 8 8 7 7 7 6 6 6 6 6 6 6 6 6 6 7 7 8 7 7 7 8 8 8 7 6 6 7 8 8 9 10 10 10 10 9 8 7 6 6 5 5 4 3 3 3 4
9 9 10 10 10 10 10 10 11 11 11 11 11 12 12 12 12 12 12 12 11 11 11 11 10 10 9 9 9 8 8 7 7 7 6 6 6 6 6 6 5 4 3 4 5 6 6 8 8 7 7 8 8 9 9 10 9 9 8 7 7 6 6 6 6 6 5 4 4
10 9 9 10 10 10 10 10 11 11 11 11 12 12 12 12 13 13 13 13 13 12 12 12 11 11 11 11 11 10 10 10 9 9 9 8 7 6 6 6 5 4 2 1 2 3 4 6 7 7 7 9 8 8 9 9 9 9 9 8 7 6 6 6 6 6 6 5 5
9 9 9 9 10 10 10 11 11 11 12 12 12 12 12 12 13 12 12 13 13 12 12 12 12 12 12 12 11 11 11 11 11 11 11 11 10 9 8 7 6 5 4 2 1 2 2 3 4 5 5 5 5 6 7 9 10 10 10 9 8 7 7 6 6 5 5 5 6
9 10 11 11 11 12 12 12 12 12 12 12 13 13 13 13 13 13 13 13 13 13 12 12 12 12 12 12 12 12 12 12 12 12 12 12 13 13 12 11 10 9 8 6 3 1 0 -1 -0 0 1 2 3 3 3 4 6 8 9 9 9 8 8 7 6 6 5 5 6
12 12 13 14 14 13 13 13 13 12 12 12 12 12 12 12 13 13 14 15 15 15 15 15 14 13 13 12 12 12 12 12 12 12 12 13 13 14 14 15 14 14 13 11 8 6 3 1 0 0 0 1 2 1 0 1 2 4 4 5 6 7 7 8 7 6 6 6 6
13 13 13 13 12 12 11 11 10 10 10 9 9 9 9 10 11 13 14 16 17 19 20 20 19 17 16 15 14 13 13 13 13 13 13 13 14 15 15 16 16 16 16 15 14 13 11 8 6 4 3 2 1 0 0 -1 -1 -1 -0 1 2 3 5 6 6 5 5 5 4
12 12 11 10 9 8 8 7 7 6 6 6 5 5 6 7 9 11 13 15 17 20 22 24 24 23 21 19 18 17 16 15 15 15 15 15 16 16 17 16 17 17 17 18 18 17 16 15 12 10 8 5 4 4 4 3 2 2 2 1 1 1 2 2 3 3 3 2 1
10 8 7 7 6 6 5 5 5 5 5 5 5 6 7 8 10 12 14 16 18 20 23 25 27 27 26 25 23 21 20 19 18 18 19 19 19 19 18 18 18 18 19 19 19 20 20 19 18 17 14 12 10 9 8 7 6 6 5 4 3 3 2 1 1 1 1 -0 0
6 6 5 5 6 6 7 7 8 8 7 7 8 9 10 11 13 15 17 20 23 24 26 27 28 29 28 28 27 26 24 23 22 21 21 21 21 21 21 21 20 20 20 20 20 21 21 22 22 21 20 18 16 14 12 11 10 9 8 7 7 6 5 4 3 3 2 1 1
5 6 7 8 10 11 12 12 12 11 11 10 10 10 11 13 16 18 21 25 28 30 30 31 31 30 30 29 28 28 27 27 25 23 21 19 20 22 23 24 24 23 23 23 23 23 23 22 23 23 23 22 20 18 17 15 14 13 12 11 10 9 9 8 7 6 5 4 4
7 9 11 14 16 17 17 17 15 14 12 11 11 12 14 16 20 23 26 29 31 33 34 34 33 32 31 31 30 29 29 29 28 26 23 20 18 19 21 23 24 25 25 26 25 25 24 23 23 23 23 24 23 22 21 20 17 17 16 15 13 12 11 10 9 9 8 8 7
12 14 17 19 19 19 18 16 14 12 11 11 13 16 19 22 25 28 30 32 33 34 34 33 32 32 32 32 33 34 34 33 33 32 30 26 21 19 19 21 23 24 24 25 25 25 25 24 23 23 22 23 23 23 22 22 19 18 17 17 16 14 13 12 12 11 11 11 11
16 18 19 19 17 15 12 10 9 9 10 13 17 21 25 28 29 31 31 32 32 33 32 31 30 30 31 32 32 31 30 30 32 33 34 33 27 22 19 19 21 22 23 23 23 23 23 23 23 22 22 22 22 22 22 22 20 18 17 17 16 16 15 15 14 14 14 13 13
17 17 16 14 11 9 8 7 8 10 13 18 22 26 29 31 30 30 30 30 30 30 31 31 30 30 28 24 16 14 15 22 27 30 32 32 29 24 19 17 19 21 22 21 20 19 20 21 21 21 21 21 21 20 20 20 20 19 18 17 16 16 17 17 16 15 15 15 15
14 12 10 8 7 7 7 8 11 14 18 23 27 30 31 29 27 27 27 27 28 28 29 30 32 31 27 17 8 8 14 26 31 32 29 27 26 23 20 17 18 18 18 17 16 16 17 19 20 20 20 20 20 19 19 19 19 18 17 17 15 16 16 17 16 15 15 15 15
9 7 6 6 6 7 9 11 14 18 23 28 31 31 29 25 23 23 24 26 27 29 30 31 32 32 29 22 14 11 13 22 31 33 30 26 24 21 17 14 14 14 13 14 15 16 18 19 19 20 20 19 19 19 19 18 17 16 16 16 16 15 15 14 14 14 14 14 14
5 5 5 6 7 9 12 14 18 22 27 31 31 28 24 20 19 20 23 25 28 30 31 33 34 35 33 29 22 17 17 24 32 33 30 24 21 17 13 11 10 11 12 15 17 19 20 20 19 19 19 18 18 17 17 16 16 16 16 16 15 15 14 13 13 13 14 14 14
4 4 5 7 10 12 14 16 20 25 29 32 29 23 18 15 16 19 22 25 28 31 34 36 37 39 40 39 34 28 23 23 25 25 23 21 17 13 11 10 10 11 13 16 18 20 21 21 20 19 19 17 16 16 15 15 15 15 15 15 14 14 14 13 13 13 13 14 14
3 5 7 11 13 15 16 18 23 27 31 31 24 18 14 13 15 18 21 23 26 31 34 34 29 26 26 30 28 21 11 2 2 7 13 17 14 12 10 9 10 12 14 16 18 19 20 20 20 19 18 17 16 15 15 15 15 14 14 14 14 14 14 14 14 13 13 14 15
5 8 11 15 16 17 18 20 26 30 31 28 20 15 12 14 17 19 19 20 22 27 31 31 24 19 16 12 6 -1 -6 -9 -5 2 10 15 14 12 10 10 13 16 19 20 19 18 17 18 19 18 17 17 16 16 16 16 16 15 15 14 14 15 15 14 14 13 13 13 14
7 11 15 17 17 18 19 23 28 31 30 25 18 14 14 16 19 21 20 18 17 20 24 28 28 26 23 18 10 5 3 4 7 11 14 17 16 14 13 14 15 17 19 21 20 19 18 18 18 17 17 16 16 16 17 17 16 16 15 15 15 15 15 14 14 13 13 13 13
10 13 16 17 16 17 20 25 29 31 29 24 18 15 16 19 22 23 23 20 17 17 18 21 24 25 24 21 17 15 14 15 17 19 20 21 20 19 18 17 16 17 19 22 22 21 19 18 18 17 17 17 17 18 18 17 16 16 15 15 15 14 14 14 13 13 12 12 11
11 14 16 15 15 16 20 25 28 30 28 23 18 16 16 20 23 25 26 24 21 20 19 19 20 20 19 18 17 18 19 22 23 23 22 21 21 20 18 16 16 16 18 20 21 21 20 19 19 18 18 18 19 18 18 17 16 15 15 15 14 14 13 13 12 12 11 11 10
11 13 14 14 13 15 17 21 25 27 26 23 19 16 16 19 23 25 27 27 26 26 25 25 24 23 23 22 22 22 23 24 23 22 21 20 19 19 18 17 16 16 17 18 19 20 21 21 21 21 21 20 19 18 17 16 16 15 15 14 14 13 12 11 11 10 10 9 9
9 11 12 13 12 12 13 16 20 23 25 24 20 18 16 18 21 23 25 26 27 28 29 30 29 28 27 26 25 23 22 22 21 21 20 21 20 20 19 17 16 16 17 18 20 22 23 23 23 22 22 21 19 18 17 16 15 14 13 12 12 11 11 10 9 9 10 11 12
8 8 10 12 11 10 10 11 15 19 23 24 22 19 17 17 18 20 22 24 25 25 26 27 28 29 29 27 26 24 23 22 22 21 22 22 21 20 19 17 17 18 20 23 24 24 24 23 22 20 19 18 16 15 14 13 12 11 10 10 10 10 10 11 12 13 15 17 18
7 7 7 9 10 8 7 7 11 15 20 23 23 21 19 18 18 19 20 21 21 21 22 22 24 25 25 25 25 24 23 22 22 21 21 21 20 20 20 20 21 23 24 25 24 23 21 19 17 15 13 12 11 11 10 10 10 10 10 10 11 12 13 15 16 17 16 15 12
8 6 5 7 8 8 7 6 8 12 16 21 22 22 20 18 18 18 19 20 20 20 21 22 22 21 21 22 23 23 22 22 21 21 21 21 21 21 22 23 24 24 24 22 20 18 16 14 12 12 11 11 11 11 11 11 12 12 12 13 13 14 14 13 11 9 5 2 1
11 7 4 4 6 7 8 7 8 10 13 17 19 20 20 19 18 18 18 19 20 21 21 21 21 21 22 23 23 23 23 23 22 22 22 22 23 23 23 23 22 21 19 17 16 15 15 15 15 15 14 14 13 12 11 10 9 9 9 9 8 7 6 4 3 2 3 4 7
15 10 6 3 5 6 8 8 8 9 10 13 16 18 19 19 18 18 18 19 20 21 21 21 21 22 22 23 23 23 24 24 24 23 23 22 22 21 20 19 17 16 15 14 15 15 16 17 16 15 12 9 4 0 -3 -5 -5 -3 -1 1 3 4 4 5 6 8 11 13 14
19 15 10 6 5 5 7 8 8 9 10 11 13 15 17 17 17 17 17 18 19 20 20 21 21 22 22 22 22 22 23 23 23 23 22 21 20 20 19 17 17 17 17 17 16 15 13 9 6 1 -4 -9 -9 -6 -1 7 12 15 16 15 15 14 14 13 13 13 13 13 13
20 18 15 11 8 7 7 8 9 9 10 11 12 13 15 16 16 16 16 16 16 17 17 18 19 19 20 21 21 22 22 21 21 21 21 20 20 20 20 19 19 19 18 15 10 4 -2 -7 -9 -9 -6 0 10 18 24 26 26 24 21 18 16 14 13 12 11 10 10 9 9
18 18 17 15 12 10 8 8 9 10 10 11 12 13 13 15 15 15 15 15 14 13 13 12 12 12 13 13 14 15 16 16 17 17 17 16 15 15 14 13 11 7 2 -4 -9 -12 -13 -10 -2 7 15 21 20 16 12 8 6 4 3 3 4 5 6 6 7 7 7 7 8
14 15 15 15 14 13 11 10 10 10 11 11 12 13 13 14 15 15 16 16 16 15 14 12 10 9 8 7 7 8 8 9 9 10 10 10 9 8 7 6 3 -1 -4 -5 -4 -1 5 12 17 19 18 13 5 -1 -4 -6 -5 -3 -1 1 3 5 5 6 6 6 6 7 8
10 11 12 13 13 14 13 12 11 10 10 10 11 12 13 14 14 15 16 16 17 17 18 18 18 16 15 13 12 11 10 9 8 8 7 6 6 7 7 7 7 7 9 12 15 17 17 16 12 9 7 4 2 0 -1 -1 1 2 4 6 7 7 6 6 6 7 7 8 8
8 9 10 11 12 13 14 14 12 11 9 8 8 9 10 11 12 12 12 13 13 14 16 18 20 22 22 22 21 19 17 15 14 12 10 7 6 5 6 7 9 11 13 14 12 10 6 2 1 1 3 5 5 4 4 4 5 6 7 8 8 8 9 9 9 9 8 7 7
8 9 10 11 12 13 14 15 14 12 10 7 6 6 6 7 8 8 8 8 8 9 10 12 14 16 18 19 19 19 18 18 17 16 15 14 13 12 12 11 12 12 10 7 2 -0 -1 -0 2 4 6 8 8 9 9 8 9 9 9 10 11 12 13 13 12 11 11 11 12
9 11 12 13 14 15 16 17 16 15 13 10 8 7 6 6 6 5 5 5 6 6 6 6 7 7 8 10 11 12 14 16 17 18 18 19 19 18 18 17 14 10 6 1 0 1 3 5 8 9 11 11 11 11 10 10 10 11 12 13 14 14 14 14 13 12 12 13 13
12 13 14 15 15 16 17 18 19 19 18 16 14 12 11 10 9 8 8 8 8 8 7 6 4 3 4 7 8 10 11 13 15 15 15 14 14 13 12 11 8 5 4 3 5 7 9 12 13 15 16 16 16 15 14 14 15 15 16 15 14 13 13 12 12 12 12 12 12
Height
5730 5729 5729 5728 5728 5727 5726 5725 5724 5724 5723 5722 5721 5720 5719 5719 5718 5717 5717 5716 5716 5715 5715 5715 5715 5715 5714 5714 5714 5714 5714 5714 5713 5713 5713 5713 5713 5714 5714 5714 5713 5713 5713 5712 5711 5711 5713 5714 5714 5713 5713 5714 5715 5715 5715 5716 5717 5717 5717 5717 5718 5719 5719 5719 5719 5719 5718 5718 5718
5726 5726 5725 5724 5724 5723 5722 5721 5720 5719 5718 5717 5716 5715 5714 5714 5713 5712 5711 5710 5709 5709 5709 5709 5709 5709 5709 5708 5708 5708 5708 5708 5707 5707 5707 5708 5708 5709 5710 5709 5708 5709 5709 5708 5707 5708 5709 5709 5709 5709 5709 5710 5711 5711 5711 5712 5712 5713 5713 5713 5714 5714 5714 5714 5714 5714 5715 5715 5714
5723 5722 5721 5721 5720 5719 5718 5717 5716 5715 5714 5712 5711 5710 5709 5708 5708 5707 5705 5704 5704 5703 5702 5702 5702 5702 5702 5701 5701 5702 5701 5701 5701 5701 5701 5702 5703 5704 5704 5703 5703 5704 5704 5703 5703 5704 5705 5704 5704 5704 5704 5706 5706 5707 5707 5707 5708 5709 5709 5709 5709 5710 5710 5710 5710 5710 5710 5710 5711
5719 5719 5718 5717 5716 5715 5714 5713 5712 5710 5709 5708 5707 5706 5705 5704 5703 5701 5700 5699 5698 5697 5696 5695 5695 5695 5694 5694 5694 5694 5694 5694 5694 5694 5694 5695 5697 5698 5698 5696 5697 5698 5698 5698 5700 5701 5701 5700 5698 5698 5700 5701 5702 5703 5703 5703 5704 5704 5704 5705 5706 5706 5706 5706 5707 5707 5707 5707 5707
5716 5715 5714 5713 5712 5711 5709 5709 5707 5706 5704 5703 5702 5701 5700 5699 5697 5696 5695 5693 5692 5691 5690 5689 5689 5688 5688 5688 5688 5687 5687 5687 5687 5687 5688 5688 5689 5690 5691 5690 5691 5691 5692 5694 5695 5696 5696 5695 5694 5694 5695 5697 5699 5699 5698 5699 5699 5700 5700 5701 5702 5702 5703 5703 5703 5703 5704 5704 5704
5712 5711 5710 5709 5708 5706 5705 5704 5703 5701 5700 5699 5697 5696 5694 5693 5692 5691 5689 5688 5687 5685 5684 5683 5682 5681 5680 5680 5680 5680 5680 5679 5679 5680 5680 5681 5681 5682 5683 5684 5684 5685 5686 5688 5689 5690 5690 5690 5689 5690 5690 5692 5693 5694 5694 5694 5695 5696 5696 5697 5698 5698 5699 5699 5699 5700 5700 5700 5701
5708 5707 5706 5704 5704 5702 5701 5700 5698 5697 5695 5694 5692 5691 5689 5688 5686 5685 5683 5682 5681 5679 5678 5677 5675 5674 5674 5673 5673 5673 5672 5672 5672 5672 5673 5673 5673 5674 5675 5676 5677 5678 5679 5681 5682 5684 5684 5685 5685 5685 5686 5687 5688 5689 5690 5690 5691 5692 5692 5693 5694 5695 5695 5695 5696 5696 5697 5697 5698
5704 5703 5702 5701 5699 5698 5697 5695 5694 5692 5691 5689 5688 5686 5684 5682 5680 5679 5677 5676 5674 5673 5672 5670 5669 5668 5667 5666 5665 5665 5665 5665 5665 5665 5665 5665 5666 5666 5667 5668 5669 5671 5673 5674 5676 5677 5679 5679 5680 5681 5682 5683 5684 5684 5685 5686 5687 5687 5688 5689 5690 5691 5692 5692 5692 5693 5693 5694 5694
5701 5699 5698 5697 5696 5694 5693 5691 5689 5688 5686 5684 5682 5680 5678 5676 5674 5672 5670 5669 5667 5666 5665 5664 5662 5661 5660 5659 5659 5658 5658 5658 5658 5658 5658 5659 5659 5659 5660 5661 5663 5664 5666 5668 5670 5671 5673 5674 5675 5676 5677 5678 5679 5679 5680 5681 5682 5683 5684 5685 5686 5687 5688 5688 5689 5689 5689 5690 5691
5698 5696 5695 5694 5692 5690 5689 5687 5685 5683 5681 5679 5677 5674 5672 5670 5668 5665 5663 5661 5660 5659 5658 5656 5655 5654 5653 5652 5652 5651 5651 5651 5651 5651 5652 5652 5652 5652 5653 5654 5656 5658 5660 5662 5664 5665 5667 5668 5670 5671 5672 5674 5675 5675 5676 5676 5678 5678 5679 5680 5682 5683 5683 5684 5684 5685 5685 5686 5687
5694 5693 5692 5690 5688 5687 5685 5683 5681 5679 5676 5674 5672 5669 5667 5664 5661 5659 5656 5654 5652 5651 5649 5649 5648 5647 5646 5645 5645 5645 5645 5645 5645 5645 5645 5645 5645 5646 5647 5649 5650 5652 5654 5655 5657 5659 5661 5663 5664 5666 5667 5669 5670 5671 5671 5672 5673 5674 5674 5676 5677 5678 5679 5679 5680 5681 5681 5682 5683
5692 5690 5688 5686 5684 5683 5681 5679 5676 5674 5672 5669 5666 5664 5661 5658 5655 5653 5650 5648 5645 5644 5642 5641 5640 5639 5639 5639 5639 5639 5639 5639 5639 5639 5639 5640 5640 5641 5642 5644 5645 5647 5649 5650 5652 5654 5655 5657 5659 5660 5662 5664 5665 5666 5667 5668 5669 5669 5670 5671 5672 5673 5674 5675 5675 5676 5677 5678 5678
5689 5687 5685 5683 5681 5679 5677 5674 5672 5669 5667 5664 5661 5658 5655 5653 5649 5647 5644 5642 5639 5637 5635 5634 5633 5633 5632 5632 5632 5633 5633 5634 5634 5634 5634 5635 5636 5637 5638 5639 5641 5642 5644 5645 5646 5648 5650 5651 5653 5655 5657 5658 5660 5661 5662 5664 5665 5665 5666 5667 5668 5669 5669 5670 5671 5672 5673 5673 5674
5686 5684 5682 5680 5678 5675 5673 5670 5667 5664 5661 5658 5655 5652 5649 5646 5644 5641 5639 5636 5633 5631 5630 5628 5627 5627 5627 5627 5627 5628 5628 5629 5629 5629 5630 5631 5632 5633 5634 5635 5636 5638 5639 5640 5642 5643 5645 5646 5648 5649 5651 5653 5654 5656 5657 5659 5660 5661 5661 5663 5664 5664 5664 5665 5666 5667 5668 5669 5669
5683 5681 5679 5676 5674 5671 5669 5665 5662 5659 5656 5653 5649 5646 5644 5640 5638 5635 5633 5630 5628 5626 5624 5623 5622 5622 5622 5622 5623 5624 5624 5624 5625 5625 5626 5627 5628 5629 5631 5632 5633 5634 5635 5636 5637 5639 5640 5642 5643 5645 5647 5649 5650 5651 5652 5654 5655 5656 5657 5658 5659 5659 5660 5661 5662 5663 5663 5664 5664
5679 5677 5675 5673 5670 5667 5664 5661 5658 5654 5651 5648 5644 5641 5638 5635 5633 5630 5628 5625 5623 5621 5620 5619 5618 5617 5617 5618 5619 5619 5620 5620 5621 5621 5622 5623 5624 5626 5627 5628 5629 5630 5631 5632 5633 5634 5636 5637 5639 5640 5642 5644 5645 5647 5648 5649 5650 5651 5652 5653 5655 5655 5656 5657 5658 5658 5658 5659 5660
5676 5674 5672 5669 5666 5663 5660 5657 5653 5650 5646 5643 5640 5637 5634 5631 5628 5626 5623 5621 5619 5617 5615 5614 5614 5613 5613 5614 5614 5615 5615 5616 5616 5617 5618 5619 5620 5622 5624 5624 5625 5626 5627 5628 5629 5631 5632 5634 5635 5636 5638 5639 5640 5642 5644 5645 5645 5646 5647 5649 5650 5651 5652 5653 5653 5653 5654 5655 5656
5673 5671 5668 5666 5663 5660 5657 5653 5649 5646 5642 5639 5636 5633 5630 5627 5625 5622 5619 5617 5615 5613 5611 5610 5609 5609 5609 5609 5610 5611 5611 5612 5612 5613 5614 5616 5617 5619 5620 5621 5622 5623 5623 5624 5626 5627 5628 5629 5631 5632 5634 5635 5636 5637 5639 5640 5642 5643 5644 5644 5645 5646 5647 5648 5649 5649 5650 5651 5651
5670 5668 5666 5663 5660 5657 5653 5650 5646 5643 5639 5636 5633 5630 5627 5624 5622 5619 5616 5614 5611 5609 5608 5606 5605 5605 5605 5606 5607 5608 5609 5609 5610 5611 5612 5613 5614 5615 5616 5617 5618 5619 5620 5621 5622 5623 5624 5625 5627 5628 5629 5630 5632 5633 5634 5636 5638 5639 5640 5641 5641 5642 5643 5644 5645 5646 5646 5647 5647
5668 5666 5663 5661 5658 5654 5651 5647 5643 5640 5636 5633 5630 5628 5625 5622 5619 5616 5614 5611 5609 5607 5605 5604 5603 5602 5602 5603 5604 5605 5606 5607 5608 5609 5610 5611 5611 5612 5613 5614 5614 5615 5616 5617 5618 5619 5620 5621 5622 5624 5625 5626 5628 5629 5630 5632 5633 5634 5636 5637 5637 5638 5639 5640 5641 5642 5643 5643 5644
5666 5664 5661 5658 5655 5652 5649 5644 5641 5637 5634 5631 5628 5626 5623 5620 5617 5614 5612 5609 5607 5605 5603 5602 5601 5601 5601 5601 5602 5603 5604 5604 5605 5606 5607 5608 5608 5609 5609 5610 5612 5613 5614 5615 5615 5615 5616 5617 5618 5619 5621 5623 5624 5625 5627 5628 5629 5631 5632 5633 5634 5635 5636 5637 5637 5638 5639 5640 5640
5664 5661 5659 5656 5653 5650 5646 5642 5639 5635 5632 5629 5626 5624 5621 5618 5615 5613 5610 5608 5605 5604 5602 5600 5600 5600 5600 5600 5600 5601 5601 5602 5603 5604 5604 5605 5605 5606 5606 5607 5609 5610 5612 5612 5612 5612 5613 5614 5615 5616 5618 5619 5621 5622 5624 5625 5626 5627 5629 5630 5631 5632 5633 5634 5634 5635 5636 5637 5637
5661 5659 5657 5654 5651 5648 5644 5640 5636 5633 5630 5627 5624 5622 5619 5616 5613 5611 5609 5607 5604 5603 5601 5599 5598 5598 5599 5599 5599 5600 5600 5601 5601 5602 5602 5602 5603 5603 5603 5604 5605 5607 5608 5609 5610 5610 5610 5611 5612 5614 5615 5616 5618 5619 5620 5622 5623 5624 5626 5627 5628 5629 5630 5631 5631 5632 5633 5633 5634
5659 5657 5654 5652 5649 5645 5642 5638 5635 5631 5629 5626 5623 5620 5617 5614 5612 5609 5607 5605 5604 5602 5600 5599 5597 5597 5596 5597 5597 5598 5598 5599 5599 5599 5599 5599 5600 5600 5601 5602 5603 5604 5605 5606 5608 5608 5608 5609 5610 5611 5612 5614 5615 5616 5618 5619 5620 5622 5623 5624 5625 5626 5627 5628 5629 5629 5629 5630 5630
5657 5655 5652 5650 5647 5644 5640 5637 5633 5630 5627 5624 5622 5619 5616 5613 5610 5608 5606 5604 5602 5601 5599 5598 5597 5596 5595 5595 5595 5595 5596 5596 5597 5597 5597 5598 5598 5599 5599 5600 5600 5601 5602 5604 5604 5605 5606 5607 5608 5609 5610 5611 5613 5614 5615 5617 5618 5619 5620 5622 5623 5624 5624 5625 5626 5626 5626 5627 5627
5654 5653 5650 5648 5645 5642 5639 5635 5632 5629 5626 5623 5620 5618 5615 5613 5610 5608 5605 5603 5601 5600 5599 5597 5596 5595 5595 5594 5594 5594 5594 5595 5595 5596 5596 5597 5597 5597 5598 5598 5599 5599 5600 5601 5602 5603 5604 5605 5606 5607 5608 5609 5611 5612 5613 5614 5616 5617 5618 5619 5620 5621 5622 5622 5623 5623 5624 5624 5624
5652 5650 5648 5646 5643 5640 5638 5634 5631 5628 5625 5622 5620 5617 5615 5612 5610 5607 5605 5603 5601 5599 5598 5596 5595 5594 5594 5594 5594 5593 5594 5594 5594 5594 5595 5595 5596 5596 5597 5597 5597 5598 5599 5599 5600 5601 5602 5603 5604 5605 5606 5608 5609 5610 5611 5613 5614 5615 5616 5617 5618 5618 5619 5619 5620 5620 5620 5620 5621
5650 5649 5646 5644 5642 5639 5636 5633 5630 5627 5624 5621 5619 5617 5614 5612 5610 5608 5605 5603 5601 5599 5598 5596 5595 5594 5593 5593 5592 5592 5592 5593 5593 5593 5594 5594 5594 5595 5595 5595 5596 5596 5597 5597 5598 5599 5600 5601 5602 5603 5604 5606 5607 5608 5609 5610 5612 5613 5614 5614 5615 5616 5616 5617 5617 5617 5618 5618 5618
5648 5646 5644 5642 5640 5638 5635 5632 5629 5627 5624 5621 5619 5616 5614 5612 5610 5608 5606 5604 5602 5600 5598 5596 5595 5594 5593 5592 5592 5591 5591 5591 5592 5592 5592 5592 5593 5594 5594 5594 5594 5594 5595 5596 5597 5597 5599 5599 5601 5602 5603 5604 5605 5606 5608 5609 5609 5610 5611 5612 5613 5613 5614 5614 5614 5615 5615 5615 5615
5646 5644 5643 5641 5639 5636 5634 5631 5629 5626 5623 5621 5618 5616 5614 5612 5610 5608 5606 5604 5602 5600 5599 5597 5595 5594 5593 5592 5592 5591 5591 5591 5591 5591 5591 5591 5592 5592 5592 5593 5593 5594 5594 5595 5596 5597 5598 5599 5600 5601 5602 5603 5604 5605 5606 5607 5608 5608 5609 5610 5610 5611 5611 5612 5612 5612 5612 5613 5613
5644 5643 5641 5639 5637 5635 5633 5630 5628 5625 5623 5620 5618 5616 5614 5612 5610 5608 5606 5604 5603 5601 5599 5597 5596 5595 5594 5593 5592 5591 5591 5591 5591 5591 5591 5591 5591 5591 5592 5592 5593 5593 5594 5595 5596 5596 5597 5598 5599 5600 5600 5601 5602 5603 5604 5605 5606 5606 5607 5608 5608 5609 5609 5609 5609 5609 5610 5610 5610
5642 5641 5639 5638 5636 5634 5632 5629 5627 5625 5623 5620 5619 5616 5614 5612 5610 5609 5607 5605 5603 5601 5599 5598 5597 5595 5594 5593 5592 5592 5591 5591 5591 5591 5591 5591 5592 5592 5592 5593 5593 5594 5594 5595 5595 5596 5597 5598 5598 5599 5599 5600 5601 5602 5603 5604 5604 5605 5606 5606 5606 5606 5607 5607 5608 5608 5608 5607 5607
5640 5639 5638 5636 5635 5633 5631 5629 5627 5624 5623 5620 5619 5617 5614 5613 5611 5609 5607 5605 5604 5602 5600 5599 5597 5596 5595 5594 5593 5592 5592 5591 5591 5591 5591 5592 5592 5592 5592 5593 5593 5594 5594 5595 5595 5596 5596 5597 5597 5598 5599 5599 5600 5601 5602 5603 5604 5604 5604 5605 5605 5605 5605 5605 5605 5605 5605 5604 5604
5639 5638 5636 5635 5634 5632 5630 5628 5626 5624 5622 5620 5619 5617 5615 5613 5611 5609 5608 5606 5604 5603 5601 5600 5598 5597 5596 5595 5594 5593 5593 5592 5592 5592 5592 5592 5592 5592 5593 5593 5593 5594 5594 5594 5595 5595 5596 5596 5597 5597 5598 5599 5600 5601 5602 5602 5602 5603 5603 5603 5603 5603 5603 5603 5603 5603 5602 5602 5601
5638 5636 5635 5634 5632 5631 5629 5627 5625 5624 5622 5620 5618 5617 5615 5613 5612 5610 5608 5607 5605 5604 5602 5601 5599 5598 5597 5596 5595 5594 5594 5593 5593 5593 5593 5593 5593 5593 5593 5593 5594 5594 5594 5594 5595 5595 5595 5596 5596 5597 5599 5600 5600 5600 5600 5600 5600 5600 5600 5600 5600 5600 5600 5600 5600 5600 5599 5599 5599
5637 5635 5634 5632 5631 5629 5628 5626 5625 5623 5621 5620 5618 5616 5615 5613 5612 5610 5609 5607 5605 5604 5603 5602 5600 5599 5598 5597 5596 5595 5595 5594 5594 5594 5593 5593 5593 5593 5593 5594 5594 5594 5594 5594 5594 5595 5595 5596 5597 5598 5599 5599 5599 5599 5598 5598 5598 5598 5598 5598 5598 5598 5598 5598 5598 5598 5597 5597 5597
5636 5634 5633 5631 5630 5628 5627 5625 5624 5623 5621 5619 5618 5616 5614 5613 5612 5610 5609 5607 5606 5604 5603 5602 5601 5600 5599 5598 5597 5596 5595 5595 5594 5594 5594 5593 5593 5593 5593 5594 5594 5594 5594 5594 5594 5595 5596 5597 5597 5598 5598 5598 5597 5597 5597 5597 5597 5597 5597 5597 5597 5597 5597 5596 5596 5596 5595 5595 5594
5635 5633 5632 5630 5629 5627 5626 5624 5623 5622 5620 5619 5617 5616 5614 5613 5612 5610 5609 5608 5606 5605 5604 5602 5601 5600 5599 5598 5597 5596 5596 5595 5594 5594 5594 5593 5593 5593 5593 5594 5594 5594 5594 5594 5595 5596 5597 5597 5597 5597 5596 5596 5596 5596 5596 5596 5596 5596 5596 5596 5596 5595 5595 5595 5594 5594 5593 5593 5592
5634 5633 5631 5629 5628 5626 5625 5624 5622 5621 5620 5618 5617 5615 5614 5613 5611 5610 5609 5607 5606 5605 5604 5603 5601 5600 5599 5599 5598 5597 5596 5595 5594 5594 5594 5594 5594 5594 5594 5594 5594 5594 5595 5595 5596 5596 5596 5596 5596 5595 5595 5595 5595 5595 5595 5595 5595 5595 5595 5594 5594 5594 5594 5593 5593 5592 5591 5590 5589
5633 5632 5630 5629 5627 5626 5624 5623 5622 5620 5619 5618 5616 5615 5614 5612 5611 5610 5609 5607 5606 5604 5604 5602 5601 5600 5599 5599 5598 5597 5596 5596 5595 5595 5594 5594 5594 5595 5595 5595 5595 5595 5595 5595 5595 5595 5595 5595 5594 5594 5594 5594 5594 5594 5594 5594 5594 5594 5593 5593 5593 5592 5592 5591 5590 5589 5588 5587 5586
5633 5631 5630 5628 5627 5626 5624 5623 5621 5620 5619 5618 5616 5615 5614 5612 5611 5609 5608 5607 5606 5605 5604 5602 5601 5600 5600 5599 5599 5598 5597 5597 5596 5596 5596 5596 5596 5596 5596 5596 5596 5595 5595 5595 5595 5594 5594 5594 5594 5593 5593 5593 5593 5592 5592 5592 5592 5592 5591 5591 5590 5590 5589 5589 5588 5587 5586 5585 5584